Overview Statistics Trail Chart Weather Telemetry Raw packets
 

This is the latest recevied weather packets stored in our database for station/object IU8UOQ-5. If no packets are shown the sender has not sent any weather packets the latest 10 day(s).

<< 23 24 25 26 27 28 29 >>
Time Temp. Humidity Pressure Rain* Wind** Luminosity Snow
1787865348 28.33° C 45% 1011.1 hPa - - - -
1787864146 28.89° C 47% 1011.1 hPa - - - -
1787862945 28.89° C 46% 1011.1 hPa - - - -
1787861744 29.44° C 47% 1011.1 hPa - - - -
1787860543 29.44° C 49% 1011.1 hPa - - - -
1787859341 30° C 53% 1011.1 hPa - - - -
1787858140 30.56° C 57% 1011 hPa - - - -
1787856939 30.56° C 63% 1010.7 hPa - - - -
1787855738 30.56° C 71% 1010.3 hPa - - - -
1787854536 31.11° C 82% 1010.1 hPa - - - -
1787853335 31.11° C 83% 1010 hPa - - - -
1787852134 31.11° C 83% 1010 hPa - - - -
1787850933 31.11° C 84% 1010 hPa - - - -
1787849731 31.11° C 79% 1009.8 hPa - - - -
1787848530 31.67° C 77% 1009.9 hPa - - - -
1787847329 31.67° C 79% 1009.9 hPa - - - -
1787846128 31.67° C 80% 1010.1 hPa - - - -
1787844926 32.22° C 77% 1009.9 hPa - - - -
1787843725 31.67° C 81% 1009.9 hPa - - - -
1787842524 32.22° C 75% 1010 hPa - - - -
1787841322 32.22° C 72% 1009.9 hPa - - - -
1787840121 32.78° C 64% 1009.9 hPa - - - -
1787838920 33.33° C 60% 1009.6 hPa - - - -
1787837719 33.89° C 57% 1009.3 hPa - - - -
1787836517 33.89° C 58% 1009.4 hPa - - - -

* Rain since midnight (hover to see other rain measurements)
** Current wind speed in m/s (hover to see current wind gust speed)